Regional Weather Roundup
Issued by NWS

Home | Current Version | Previous Version | Graphics & Text | Print | Product List | Glossary On
Versions: 1 2 3 4 5 6 7 8 9 10 11 12 13 14 15 16 17 18 19 20 21 22 23 24 25 26 27 28 29 30 31 32 33 34 35 36 37 38 39 40 41 42 43 44 45 46 47 48 49 50
000
ASUS43 KLSX 240607
RWRMO

WEATHER SUMMARY FOR MISSOURI
NATIONAL WEATHER SERVICE SPRINGFIELD MO
100 AM CDT SUN JUL 24 2016

NOTE: "FAIR" INDICATES FEW OR NO CLOUDS BELOW 12,000 FEET WITH NO
       SIGNIFICANT WEATHER AND/OR OBSTRUCTIONS TO VISIBILITY.
       CURRENT SKY AND/OR WEATHER CONDITIONS ARE NOT AVAILABLE FOR
       CHILLICOTHE AND FARMINGTON.

MOZ001>031-035>038-043-044-053-054-240700-
...NORTHERN AND WESTERN MISSOURI...

CITY           SKY/WX    TMP DP  RH WIND       PRES   REMARKS
KANSAS CTY INT CLOUDY    84  72  67 S12       29.88S
6HR MIN TEMP:  82; 6HR MAX TEMP:  87;

KANSAS C DTWN  CLOUDY    89  71  55 S6        29.86S HX  95
6HR MIN TEMP:  89; 6HR MAX TEMP:  92;

LEE`S SUMMIT   CLOUDY    87  72  60 S12       29.90R HX  93
6HR MIN TEMP:  87; 6HR MAX TEMP:  93;

ST JOSEPH      MOCLDY    84  72  67 S8        29.85S
6HR MIN TEMP:  83; 6HR MAX TEMP:  88;

CHILLICOTHE      N/A     83  75  77 S3        29.89S HX  90
6HR MIN TEMP:  83; 6HR MAX TEMP:  90;

KIRKSVILLE     CLOUDY    80  76  87 S5        29.91F
6HR MIN TEMP:  80; 6HR MAX TEMP:  89;


$$
MOZ066>068-077>081-088>096-101>105-240700-
...SOUTHWEST MISSOURI...

CITY           SKY/WX    TMP DP  RH WIND       PRES   REMARKS
SPRINGFIELD    CLEAR     83  74  74 S7        29.95S
6HR MIN TEMP:  82; 6HR MAX TEMP:  95;

JOPLIN         PTCLDY    82  75  79 S7        29.93R
6HR MIN TEMP:  82; 6HR MAX TEMP:  93;

BRANSON        PTCLDY    79  73  83 CALM      29.98S

$$
MOZ032>034-039>042-045>050-055>058-069>072-240700-
...CENTRAL MISSOURI...

CITY           SKY/WX    TMP DP  RH WIND       PRES   REMARKS
COLUMBIA       CLEAR     81  78  91 SE7       29.93S
6HR MIN TEMP:  81; 6HR MAX TEMP:  92;

JEFFERSON CITY CLEAR     82  77  84 SE5       29.91S HX  90
6HR MIN TEMP:  80; 6HR MAX TEMP:  94;

ROLLA          CLEAR     81  75  82 S8        29.95S
6HR MIN TEMP:  81; 6HR MAX TEMP:  92;

SEDALIA        CLOUDY    83  76  79 S3        29.93R HX  91
6HR MIN TEMP:  82; 6HR MAX TEMP:  93;

WHITEMAN AFB   CLOUDY    82  79  88 S7        29.89S HX  92
OSAGE BEACH    CLEAR     81  75  82 S6        29.94S

$$
MOZ051-052-059>065-240700-
...EAST CENTRAL MISSOURI...

CITY           SKY/WX    TMP DP  RH WIND       PRES   REMARKS
ST LOUIS INTL  PTCLDY    86  73  65 S8        29.95R HX  93
6HR MIN TEMP:  86; 6HR MAX TEMP:  93;

SPIRIT OF STL  CLEAR     79  77  94 CALM      29.92F
6HR MIN TEMP:  79; 6HR MAX TEMP:  92;

ST CHARLES     CLEAR     80  78  94 E5        29.93S
6HR MIN TEMP:  80; 6HR MAX TEMP:  89;


$$
MOZ072>076-082>087-097>100-106>115-240700-
...SOUTH CENTRAL AND SOUTHEAST MISSOURI...

CITY           SKY/WX    TMP DP  RH WIND       PRES   REMARKS
CAPE GIRARDEAU CLEAR     78  75  90 CALM      29.94S
6HR MIN TEMP:  77; 6HR MAX TEMP:  88;

FARMINGTON     CLEAR     77  75  93 SE3       29.97F
6HR MIN TEMP:  76; 6HR MAX TEMP:  89;

POPLAR BLUFF   CLEAR     79  76  90 W3        29.94S
6HR MIN TEMP:  79; 6HR MAX TEMP:  89;

WEST PLAINS    CLEAR     76  70  82 CALM      30.01S
6HR MIN TEMP:  75; 6HR MAX TEMP:  91;


$$



USA.gov is the U.S. government's official web portal to all federal, state and local government web resources and services.